Regional Weather Roundup
Issued by NWS

Home | Current Version | Previous Version | Text Only | Print | Product List | Glossary Off
Versions: 1 2 3 4 5 6 7 8 9 10 11 12 13 14 15 16 17 18 19 20 21 22 23 24 25 26 27 28 29 30 31 32 33 34 35 36 37 38 39 40 41 42 43 44 45 46 47 48 49 50

000
ASUS43 KBIS 282102
RWRND

NORTH DAKOTA REGIONAL WEATHER ROUNDUP
NATIONAL WEATHER SERVICE BISMARCK ND
400 PM CDT SUN AUG 28 2016

NOTE: "FAIR" INDICATES FEW OR NO CLOUDS BELOW 12,000 FEET WITH NO
SIGNIFICANT WEATHER AND/OR OBSTRUCTIONS TO VISIBILITY.


NDZ001>003-009>011-017-282200-
NORTHWEST NORTH DAKOTA

CITY           SKY/WX    TMP DP  RH WIND       PRES   REMARKS
WILLISTON      CLOUDY    87  46  24 N13       29.92R
MINOT          SUNNY     92  52  25 S9G20     29.86S
MINOT AFB      SUNNY     93  51  24 S9        29.84S HX  90
$$

NDZ018>021-031>035-040>046-282200-
SOUTHWEST NORTH DAKOTA

CITY           SKY/WX    TMP DP  RH WIND       PRES   REMARKS
BISMARCK       SUNNY     88  65  46 VRB3      29.89F HX  90
DICKINSON      SUNNY     95  28   9 W13G22    29.90S
GARRISON         N/A     90  62  39 S10       29.89S HX  90
HETTINGER ARPT SUNNY     95  41  15 SW7       29.94F HX  91
$$

NDZ004>008-012>016-024-026-027-054-282200-
NORTHEAST NORTH DAKOTA

CITY           SKY/WX    TMP DP  RH WIND       PRES   REMARKS
GRAND FORKS    MOSUNNY   82  67  60 SE17G24   29.94S
GRND FRKS AFB  MOSUNNY   81  68  64 S10G17    29.95S
DEVILS LAKE    SUNNY     79  68  69 SE13      29.93F
$$

NDZ022-023-025-028>030-036>039-047>053-282200-
SOUTHEAST NORTH DAKOTA

CITY           SKY/WX    TMP DP  RH WIND       PRES   REMARKS
FARGO          SUNNY     87  69  54 S18       29.93F HX  91
JAMESTOWN      MOSUNNY   84  71  65 S16       29.92R
$$




USA.gov is the U.S. government's official web portal to all federal, state and local government web resources and services.